This is the latest recevied weather packets stored in our database for station/object N0QV. If no packets are shown the sender has not sent any weather packets the latest 10 day(s).
| Time | Temp. | Humidity | Pressure | Rain* | Wind** | Luminosity | Snow |
|---|---|---|---|---|---|---|---|
| 1788301040 | 28.89° C | 65% | 1013.4 hPa | 0 mm | - | 139 W/m² | - |
| 1788300736 | 28.89° C | 67% | 1013.4 hPa | 0 mm | - | 149 W/m² | - |
| 1788300435 | 28.89° C | 67% | 1013.4 hPa | 0 mm | - | 165 W/m² | - |
| 1788300135 | 28.89° C | 67% | 1013.1 hPa | 0 mm | - | 166 W/m² | - |
| 1788299833 | 28.89° C | 67% | 1013.1 hPa | 0 mm | - | 156 W/m² | - |
| 1788299528 | 28.89° C | 67% | 1013.6 hPa | 0 mm | - | 131 W/m² | - |
| 1788299226 | 28.89° C | 66% | 1013.4 hPa | 0 mm | - | 127 W/m² | - |
| 1788298921 | 28.89° C | 66% | 1013.6 hPa | 0 mm | - | 119 W/m² | - |
| 1788298621 | 28.89° C | 66% | 1013.5 hPa | 0 mm | - | 120 W/m² | - |
| 1788298321 | 29.44° C | 65% | 1013.6 hPa | 0 mm | - | 134 W/m² | - |
| 1788298020 | 28.89° C | 66% | 1013.7 hPa | 0 mm | - | 149 W/m² | - |
| 1788297717 | 28.89° C | 67% | 1013.7 hPa | 0 mm | - | 134 W/m² | - |
| 1788297416 | 28.89° C | 65% | 1013.8 hPa | 0 mm | - | 154 W/m² | - |
| 1788297113 | 28.89° C | 67% | 1013.4 hPa | 0 mm | - | 145 W/m² | - |
| 1788296808 | 29.44° C | 66% | 1013.6 hPa | 0 mm | - | 183 W/m² | - |
| 1788296504 | 29.44° C | 66% | 1013.7 hPa | 0 mm | - | 227 W/m² | - |
| 1788296200 | 29.44° C | 67% | 1013.5 hPa | 0 mm | - | 229 W/m² | - |
| 1788295900 | 29.44° C | 66% | 1013.8 hPa | 0 mm | - | 206 W/m² | - |
| 1788295595 | 29.44° C | 67% | 1013.6 hPa | 0 mm | - | 246 W/m² | - |
| 1788295290 | 29.44° C | 67% | 1013.8 hPa | 0 mm | - | 287 W/m² | - |
| 1788294986 | 28.89° C | 69% | 1013.7 hPa | 0 mm | - | 262 W/m² | - |
| 1788294686 | 28.89° C | 71% | 1013.9 hPa | 0 mm | - | 195 W/m² | - |
| 1788294385 | 28.89° C | 68% | 1013.8 hPa | 0 mm | - | 167 W/m² | - |
| 1788294081 | 29.44° C | 67% | 1014 hPa | 0 mm | - | 121 W/m² | - |
| 1788293777 | 29.44° C | 66% | 1013.7 hPa | 0 mm | - | 199 W/m² | - |
* Rain latest hour (hover to see other rain measurements)
** Current wind speed in m/s (hover to see current wind gust speed)